map of LPMT home
LPMT - Airport
Location
City:  Montijo, Lisboa, Portugal
Name:Montijo AB
Old (Alt.):Air Base Nr 6
ICAO:LPMT

Details
Type:Airport (Aerodrome, Airfield)
Use:Military, International (customs port of entry)
Latitude:3842'14"N (38.703861)
Longitude:902'09"W (-9.035915)
Datum:WGS 1984
Elevation:46 ft (14 m)
Variation:2.21W (WMM2015 magnetic declination)
0.12 annual change
Runways:2
Longest:8005 × 148 ft (2440 × 45 m), paved

Time
Time Zone:UTC+0 (DST+1)
Local Time:

Weather
METAR:LPMT 121800Z 34008KT 300V360 9999 FEW025 15/09 Q1018
TAF:LPMT 121710Z 1218/1318 36008KT CAVOK PROB30 1301/1309 VRB02KT 0200 FG BKN002

Related Locations
Nearby:
Farthest:NPL: 12268 mi / 19743 km
New Plymouth, TKI, NZ

Find:

   beyond  
but within

Other Information
Maps:
NOTAMs:
Links:
Sources:

  
  • flag of Portugal
  

Airport Diagram

Airport diagram for LPMT

Larger airport diagram (OBSOLETE) from NGA

Sectional Chart

Flight Planning
at skyvector.com

Satellite Image

Google Maps Satellite view

 

Copyright © 2004-2018 Karl L. Swartz. All rights reserved.
The Great Circle Mapper name and logo are trademarks of the Great Circle Mapper.
All other trademarks mentioned herein belong to their respective owners.
Please see credits for attibutions and further copyright information.

  Follow gcmap on Facebook Follow gcmap on Twitter Follow gcmap on Google+ GCmap on LinkedIn

hCard Microformat

Geo Microformat